Tracking 17884 objects as of 2-December-2016
HD Live streaming from Space Station
objects crossing your sky now

GSAT 3 (EDUSAT)

Track GSAT 3 (EDUSAT) now!
GSAT 3 (EDUSAT) is classified as:


NORAD ID: 28417
Int'l Code: 2004-036A
Perigee: -6,371.0 km
Apogee: -6,371.0 km
Inclination: 4.8 °
Period: 0.0 minutes
Semi major axis: 0 km
RCS: 15.8866 m2 (large)
Launch date: September 20, 2004
Source: India (IND)
Launch site: SIRHARIKOTA (SRI)

Interactive education for remote areas of India; 6 C-band and 6 Ku-band transponders; first satellite dedicated to education.
Your satellite tracking list
Your tracking list is empty





NASA's NSSDC Master Catalog

Two Line Element Set (TLE):
1 28417U 04036A   16336.56333950 -.00000026  00000-0  00000+0 0  9996
2 28417   4.8239  63.0244 0004103 161.0803 244.0582  0.99268841 44512
Source of the keplerian elements: AFSPC